Vorticity
6 -0 1 0 1 2 5 7 5 1 -4 -7 -7 4 7 7 8 7 8 9 9 9 7 6 6 4 3 4 4 5 5 4 4 4 4 4 4 4 4 4 5 7 6
21 2 3 2 3 2 4 5 4 4 4 4 3 1 2 2 5 6 7 7 8 9 10 10 9 6 6 4 4 4 4 4 4 4 5 4 2 4 4 4 4 6 7
21 7 2 3 1 -0 2 4 4 4 5 5 4 3 3 4 3 3 3 4 5 6 8 9 9 9 8 7 5 3 3 3 4 3 4 4 4 4 5 4 4 5 6
16 7 1 3 3 2 0 2 4 3 3 3 4 5 4 4 4 4 4 4 4 4 4 4 7 9 9 8 7 5 4 3 4 3 3 5 4 4 3 5 4 5 5
15 15 7 3 3 4 4 0 1 3 3 4 3 4 4 3 2 1 2 2 2 1 2 2 3 4 4 8 9 8 7 5 4 5 2 3 3 2 4 4 6 4 4
4 10 8 6 4 3 3 3 2 2 2 4 3 2 2 1 1 1 1 1 1 2 2 2 2 2 3 4 4 8 8 7 8 7 6 5 5 4 4 2 7 5 4
3 3 6 10 7 5 3 4 4 4 3 2 2 3 5 4 4 4 3 3 3 3 2 2 3 3 2 3 4 4 5 7 7 7 8 7 6 2 6 3 1 7 6
5 4 4 5 8 8 10 7 3 4 4 3 2 3 5 5 5 3 4 4 4 5 5 5 4 4 4 3 2 3 4 4 5 8 7 6 6 7 7 6 3 3 4
6 7 6 7 6 8 15 12 6 6 6 6 8 8 5 5 3 3 3 3 2 3 3 4 4 5 5 4 4 3 2 3 3 4 5 8 7 7 7 10 9 5 3
6 5 6 5 8 12 12 11 7 4 6 5 5 4 4 3 3 3 3 4 4 5 5 5 5 4 4 4 5 4 3 2 3 3 4 4 6 6 4 -4 18 12 7
8 7 7 7 6 5 5 6 6 5 5 4 3 2 2 3 4 5 5 6 7 8 8 8 8 8 7 6 4 4 4 3 3 1 2 3 3 3 3 3 -9 10 20
7 7 7 6 5 5 5 4 3 3 2 3 3 4 5 5 6 6 7 7 8 9 9 10 11 11 10 9 7 6 5 4 3 4 3 2 1 3 3 4 4 -11 -8
5 4 5 5 5 4 3 2 2 3 4 5 5 5 7 7 7 8 9 10 11 12 12 12 11 11 11 13 14 15 9 5 4 6 5 3 3 3 3 3 2 4 5
6 5 4 4 3 3 3 3 4 4 4 5 6 7 6 7 8 10 11 11 10 10 10 9 10 10 11 12 12 12 11 12 11 12 9 7 6 5 4 2 2 1 2
5 5 5 5 5 5 5 5 5 6 6 6 6 6 8 9 10 10 11 10 9 9 8 8 8 8 9 9 10 11 12 13 13 12 12 13 11 9 6 4 4 3 2
5 5 4 5 5 5 5 5 6 6 5 5 6 7 8 10 10 10 9 8 8 7 7 7 8 7 7 7 6 7 8 9 10 11 12 13 14 13 12 9 8 6 5
7 5 5 5 5 6 6 6 6 6 6 7 9 11 12 10 8 8 7 6 6 7 7 7 7 7 6 7 6 6 6 6 7 7 7 9 10 11 12 14 14 12 10
6 7 7 7 7 7 7 8 8 7 8 9 11 11 10 9 8 7 6 7 7 7 7 7 8 8 7 7 7 8 8 7 6 6 6 7 7 8 8 9 9 11 11
10 10 9 9 9 9 10 9 7 8 9 11 11 11 9 7 7 7 7 7 7 7 7 8 8 8 9 9 9 9 8 9 8 8 7 7 7 8 8 8 9 8 8
8 8 8 9 9 8 9 9 9 9 11 10 10 9 7 6 6 6 7 7 8 8 8 7 8 9 8 8 9 8 9 9 9 9 8 8 8 8 8 8 8 8 8
13 11 11 10 8 8 8 9 9 8 10 10 10 10 9 7 6 6 6 6 6 7 7 7 7 8 9 9 8 8 10 9 9 10 9 9 8 8 7 7 8 8 9
14 13 14 13 12 10 8 8 9 10 10 10 10 9 7 7 7 7 7 6 6 6 6 7 7 7 5 6 7 7 9 7 8 8 9 8 8 7 8 8 8 7 8
9 10 10 11 11 12 13 12 10 9 9 10 10 8 8 8 8 8 8 8 8 9 11 10 10 7 4 2 -0 -0 6 5 6 7 7 7 7 7 8 8 8 8 8
6 7 6 7 10 8 8 8 9 9 10 10 9 9 9 9 8 8 9 9 9 9 10 7 5 6 6 6 7 8 9 9 9 9 6 7 7 8 7 8 8 9 8
8 11 13 15 12 12 13 12 11 11 10 10 8 8 8 9 8 8 7 8 12 11 7 5 4 7 10 11 12 12 10 9 9 8 9 6 7 10 9 8 8 9 8
3 5 9 6 6 7 6 8 9 11 10 10 10 10 10 10 10 8 8 10 8 2 -0 -3 -6 -7 -10 -3 6 7 7 7 8 9 10 10 10 5 8 8 8 7 8
Height
3179 3180 3181 3182 3183 3184 3184 3183 3183 3183 3183 3184 3184 3184 3184 3184 3184 3183 3182 3182 3182 3181 3181 3181 3180 3179 3180 3179 3179 3179 3179 3179 3179 3178 3177 3177 3175 3175 3174 3174 3174 3174 3174
3177 3179 3181 3182 3184 3184 3184 3184 3183 3183 3184 3184 3185 3185 3186 3185 3185 3185 3184 3183 3182 3182 3183 3182 3181 3181 3180 3179 3179 3179 3179 3179 3179 3179 3178 3177 3176 3176 3176 3175 3175 3175 3175
3176 3178 3180 3182 3184 3184 3184 3185 3185 3185 3185 3185 3185 3185 3186 3186 3186 3186 3185 3185 3184 3184 3184 3183 3183 3182 3182 3181 3181 3180 3179 3179 3179 3179 3178 3178 3177 3177 3176 3176 3176 3176 3176
3177 3179 3180 3182 3184 3185 3185 3185 3186 3186 3185 3185 3186 3186 3186 3186 3186 3186 3186 3185 3185 3185 3185 3184 3184 3183 3183 3182 3182 3180 3180 3179 3178 3177 3178 3177 3177 3177 3177 3176 3176 3177 3177
3177 3179 3180 3181 3182 3184 3184 3184 3185 3185 3185 3185 3185 3186 3186 3186 3186 3186 3186 3185 3185 3184 3185 3185 3184 3184 3183 3182 3181 3181 3180 3179 3179 3178 3178 3177 3177 3177 3177 3176 3176 3176 3176
3176 3178 3179 3181 3180 3182 3183 3183 3184 3183 3184 3184 3184 3184 3184 3185 3185 3185 3185 3184 3184 3184 3183 3183 3183 3182 3183 3182 3181 3180 3179 3178 3178 3178 3179 3177 3177 3176 3176 3176 3176 3175 3175
3176 3176 3177 3180 3179 3180 3181 3181 3182 3183 3182 3183 3183 3183 3183 3183 3183 3183 3183 3183 3183 3183 3182 3182 3182 3181 3181 3180 3179 3178 3177 3177 3177 3177 3177 3176 3175 3175 3175 3175 3174 3174 3174
3174 3175 3175 3177 3177 3178 3178 3179 3179 3180 3181 3181 3181 3181 3181 3181 3181 3181 3181 3181 3181 3181 3180 3180 3180 3180 3179 3178 3178 3176 3175 3176 3175 3175 3174 3174 3174 3173 3173 3173 3173 3173 3173
3172 3172 3174 3175 3175 3174 3174 3175 3176 3177 3177 3178 3178 3178 3179 3179 3179 3179 3179 3178 3178 3178 3177 3177 3176 3176 3175 3175 3175 3174 3174 3173 3173 3173 3172 3172 3172 3172 3172 3171 3171 3171 3171
3169 3170 3171 3172 3173 3172 3172 3172 3173 3174 3174 3174 3174 3175 3175 3176 3176 3176 3175 3175 3175 3174 3173 3173 3173 3172 3172 3172 3172 3171 3170 3170 3170 3170 3170 3170 3170 3168 3169 3168 3168 3168 3169
3168 3168 3169 3170 3170 3170 3170 3171 3171 3172 3172 3172 3172 3172 3171 3171 3171 3171 3170 3169 3169 3168 3168 3168 3168 3167 3167 3167 3167 3167 3166 3166 3165 3166 3166 3167 3167 3165 3165 3165 3166 3166 3165
3164 3166 3166 3167 3168 3168 3168 3169 3169 3169 3169 3169 3168 3168 3168 3167 3166 3165 3165 3164 3163 3162 3161 3160 3160 3161 3161 3161 3161 3161 3161 3161 3158 3162 3162 3162 3161 3161 3161 3162 3162 3162 3162
3163 3163 3164 3164 3165 3165 3166 3166 3166 3166 3165 3165 3164 3164 3163 3162 3162 3161 3160 3159 3158 3157 3157 3156 3156 3155 3155 3155 3156 3155 3155 3154 3152 3156 3157 3155 3157 3158 3159 3159 3157 3159 3160
3159 3160 3161 3161 3161 3161 3161 3161 3161 3161 3161 3160 3160 3159 3159 3157 3157 3155 3155 3154 3153 3152 3151 3151 3151 3151 3150 3150 3150 3149 3149 3148 3146 3150 3150 3151 3153 3153 3155 3153 3152 3155 3156
3156 3157 3157 3157 3157 3157 3157 3157 3156 3155 3155 3155 3154 3153 3152 3151 3150 3150 3150 3150 3148 3148 3147 3146 3146 3146 3146 3145 3145 3144 3144 3144 3142 3143 3144 3147 3146 3147 3148 3145 3148 3150 3149
3152 3152 3152 3152 3152 3152 3152 3152 3151 3151 3150 3149 3148 3147 3147 3145 3145 3145 3145 3144 3144 3144 3143 3143 3142 3142 3142 3141 3141 3140 3140 3139 3138 3138 3139 3140 3140 3140 3141 3140 3141 3141 3142
3148 3148 3148 3148 3148 3148 3147 3146 3145 3145 3144 3143 3142 3142 3141 3141 3141 3140 3140 3139 3139 3139 3138 3137 3138 3137 3137 3138 3135 3136 3136 3135 3134 3134 3133 3134 3134 3134 3135 3135 3135 3135 3134
3143 3144 3144 3143 3143 3143 3142 3141 3141 3140 3139 3138 3137 3136 3136 3136 3136 3136 3135 3134 3135 3134 3132 3133 3132 3133 3132 3132 3131 3132 3130 3130 3129 3129 3128 3128 3129 3128 3129 3128 3128 3128 3127
3139 3139 3138 3138 3137 3137 3136 3136 3136 3135 3134 3132 3132 3132 3132 3132 3131 3131 3130 3130 3129 3129 3129 3128 3128 3127 3127 3126 3126 3126 3124 3124 3123 3123 3123 3122 3122 3123 3122 3121 3121 3121 3120
3133 3133 3132 3132 3131 3130 3129 3129 3129 3128 3128 3127 3128 3128 3128 3127 3126 3126 3125 3125 3124 3124 3123 3122 3122 3122 3122 3120 3120 3119 3117 3117 3117 3117 3116 3115 3114 3115 3116 3114 3114 3113 3113
3127 3127 3127 3126 3125 3125 3124 3124 3124 3123 3122 3122 3123 3122 3123 3123 3122 3121 3120 3120 3119 3119 3118 3118 3117 3117 3116 3115 3115 3113 3112 3111 3111 3109 3109 3108 3107 3107 3107 3107 3107 3106 3106
3122 3122 3122 3121 3120 3119 3118 3117 3117 3116 3116 3116 3116 3116 3116 3116 3115 3116 3116 3115 3115 3114 3113 3113 3112 3112 3111 3110 3110 3109 3107 3108 3106 3104 3103 3102 3101 3100 3100 3100 3099 3098 3098
3120 3119 3118 3116 3115 3113 3112 3111 3110 3110 3110 3111 3110 3109 3109 3108 3108 3109 3109 3108 3108 3108 3107 3106 3106 3106 3105 3105 3105 3103 3101 3100 3100 3098 3098 3095 3094 3092 3091 3092 3092 3090 3090
3117 3115 3114 3111 3110 3108 3106 3105 3104 3103 3103 3104 3104 3105 3104 3103 3102 3101 3100 3100 3100 3100 3100 3100 3100 3099 3099 3098 3097 3096 3095 3094 3092 3093 3091 3090 3088 3086 3085 3085 3084 3082 3082
3113 3111 3109 3107 3105 3103 3101 3100 3098 3097 3097 3097 3096 3096 3096 3096 3096 3095 3095 3094 3093 3092 3092 3091 3091 3091 3091 3090 3089 3087 3087 3085 3084 3083 3083 3084 3082 3080 3079 3078 3077 3075 3074
3110 3108 3106 3103 3101 3099 3097 3095 3093 3091 3089 3089 3088 3089 3090 3090 3089 3088 3087 3086 3085 3085 3084 3084 3084 3084 3083 3083 3081 3079 3078 3077 3075 3073 3072 3073 3073 3074 3072 3070 3068 3068 3066